Temp_Advection
nan nan nan nan nan nan nan nan nan nan nan nan nan nan nan nan nan nan nan nan nan nan nan nan nan nan nan nan nan nan nan nan nan nan nan nan nan nan nan nan nan nan nan nan nan nan nan nan nan
nan -0 0 0 0 -0 -0 -0 0 0 -0 -0 -0 -0 -0 -0 -0 -0 0 1 0 -0 -0 0 0 -0 0 0 0 -0 -0 0 0 0 0 0 -0 -0 -1 -0 0 -0 -0 -0 -0 -0 -0 -0 nan
nan -0 0 0 -0 -0 -0 -0 -0 0 0 0 -0 -0 -0 -0 -0 -0 -0 0 0 0 -0 0 0 -0 -0 -0 -0 -0 -0 0 0 0 0 0 -0 -0 -0 -0 -0 -0 -0 -0 -0 -0 -0 -0 nan
nan -0 0 0 -1 -1 -0 0 0 -0 1 -1 0 -0 -0 0 -0 -0 -0 -0 0 0 0 0 0 0 0 0 -0 -0 -0 0 0 0 0 0 0 -0 0 -0 -0 -0 -0 -0 -0 -0 -0 -0 nan
nan 0 0 0 -1 -0 -0 -0 -0 -0 -1 -0 0 -0 -0 0 0 0 0 -0 0 0 0 0 0 0 0 0 0 -0 -0 0 0 1 0 0 0 0 0 0 0 -0 -0 -0 -0 -0 -0 -0 nan
nan 0 0 -0 -1 0 0 -0 -0 0 -0 -0 0 -1 -0 0 1 1 0 -0 -0 -0 0 0 0 0 0 0 -0 -0 -0 -0 0 1 0 0 0 0 0 0 -0 0 -0 -0 -0 -0 -0 -0 nan
nan 0 0 -0 -0 0 0 0 -0 -0 0 0 1 0 -0 -0 0 0 0 0 -0 -0 -0 0 0 0 0 0 -0 -0 -0 -0 0 0 0 0 0 0 0 0 0 -0 -0 -0 -0 -0 -0 -0 nan
nan 0 -0 0 0 -0 -0 2 -0 -0 0 0 -0 0 -0 -0 0 -0 1 1 0 -0 -0 -0 0 0 0 0 0 -0 -0 -0 -0 0 0 -0 -0 0 0 0 0 0 0 0 -0 -0 -0 -0 nan
nan -0 -0 -0 0 -0 0 0 0 0 0 0 0 -1 -2 0 0 -1 -0 0 1 0 -0 -0 -0 0 0 0 0 0 -0 -0 -0 -0 0 0 -0 -0 0 0 0 0 0 0 0 0 0 0 nan
nan -0 -0 -0 -0 0 0 0 0 -0 -0 0 1 1 0 -0 -2 -2 -2 -0 0 0 -0 0 -0 -0 0 0 0 0 0 0 -0 -0 0 0 0 0 0 0 0 0 0 0 0 0 0 0 nan
nan -0 -0 -0 0 0 0 0 0 -0 0 -0 -0 1 0 1 -1 -1 -1 0 0 0 0 0 0 -0 0 0 0 0 0 0 -0 -0 -0 0 0 0 0 0 0 0 0 0 0 0 0 0 nan
nan 0 0 -0 -0 0 0 0 -0 0 0 -0 -0 0 1 0 2 2 1 0 -0 0 0 0 0 -0 0 0 0 0 0 0 0 0 0 0 0 0 0 0 0 0 0 0 0 0 0 0 nan
nan 0 -0 -0 -0 -0 0 -0 0 1 0 0 -0 -0 1 -0 0 1 1 -0 -1 0 -0 0 0 -0 -0 -0 0 0 0 0 0 0 0 0 0 0 0 0 0 0 0 0 0 0 0 0 nan
nan 0 0 0 -0 -0 -0 0 0 0 0 0 0 -0 -0 -0 -1 0 0 -0 0 0 -0 -0 -0 0 -0 0 0 0 0 0 0 0 0 0 0 0 -0 -0 0 0 0 0 0 0 0 0 nan
nan 0 0 0 0 -0 -0 0 0 1 0 0 0 0 -0 0 -0 -0 0 0 0 -0 -0 -0 -0 0 0 0 -0 -0 0 0 0 0 0 0 -0 -0 -0 0 0 0 0 0 0 0 0 0 nan
nan 0 0 -0 0 -0 0 0 -0 0 0 0 0 0 0 0 0 0 0 0 -0 -0 0 -1 -1 -0 0 -0 0 0 0 0 -0 0 0 -0 -0 -0 0 0 0 0 0 0 0 0 0 0 nan
nan 0 0 -0 -0 -0 0 -0 -0 0 0 -0 -0 -0 0 0 0 -0 -0 -0 0 0 -0 -0 1 1 0 0 0 0 0 0 -0 0 0 0 0 0 0 0 0 0 0 0 0 0 -0 -0 nan
nan -0 -0 0 -0 0 0 -0 -0 0 0 0 0 -0 -0 -0 -0 -0 -0 -0 0 0 0 1 0 -0 -0 0 0 0 0 0 0 0 0 0 0 0 0 0 0 0 0 0 0 0 0 0 nan
nan -1 -0 -0 -0 0 -0 -0 -0 -0 0 -0 -0 -0 -0 -0 -0 -0 -0 0 -0 -0 0 -0 -0 -0 0 0 0 0 0 0 0 0 0 0 0 0 0 0 0 0 0 0 0 0 -0 -0 nan
nan -0 -0 -0 -0 -0 -0 -0 -0 -0 -0 -0 -0 -0 -0 -0 -0 -0 -0 0 -0 -0 -0 -0 -0 -0 -0 -0 -0 0 1 0 0 0 -0 0 0 0 0 0 0 0 0 0 0 0 0 0 nan
nan -0 -0 -0 -0 -0 -0 -0 -1 -0 -0 -1 -0 -0 -0 -0 -0 -0 0 0 -0 -0 -0 -0 -0 -0 0 0 1 1 0 -0 -0 -0 -0 0 0 0 0 0 0 0 0 0 0 0 0 -0 nan
nan -0 0 -0 0 0 -0 0 -0 -0 0 -0 -1 -0 -0 -0 -0 -0 -0 0 -0 -0 0 0 0 1 1 1 0 -0 -0 -0 -0 -0 -0 0 0 -0 0 0 0 0 -0 0 0 -0 0 -0 nan
nan 0 0 0 -0 0 0 -0 -0 0 -0 -1 -0 -1 -1 -0 -0 -0 -0 0 -0 0 0 0 0 0 0 0 0 0 0 0 0 0 0 0 -0 -0 -0 0 0 0 -0 -0 -0 0 0 1 nan
nan -0 -0 -0 -0 0 0 -0 -0 -0 -0 -0 -1 -1 -1 -0 0 -0 0 0 0 0 0 0 0 -0 0 0 0 0 0 0 0 0 0 -0 0 0 -0 0 0 -0 0 0 0 0 0 1 nan
nan -0 -0 0 0 -0 -0 -0 -0 -0 -0 -0 -0 0 -0 -0 0 -0 -0 0 0 0 0 0 0 0 0 0 0 0 0 0 0 0 -0 -0 0 -0 0 0 0 0 1 1 0 0 -0 0 nan
nan -0 -0 0 0 0 0 -0 -0 -0 0 1 0 0 0 0 0 0 -0 0 0 0 0 0 0 0 0 0 0 0 0 0 0 0 0 0 0 1 0 -0 0 -0 0 1 0 0 0 0 nan
nan -0 -0 -0 -0 0 -0 -0 -0 -0 0 1 1 0 0 0 -0 -0 -0 0 0 0 0 0 0 0 0 0 0 1 0 0 0 0 1 1 0 0 -0 -0 -0 -0 0 1 1 1 0 0 nan
nan -0 -0 -0 0 0 -0 -0 0 0 0 0 0 1 0 0 0 -0 -0 -0 0 0 0 0 0 0 0 0 0 1 1 0 -0 -0 0 0 0 0 -0 0 0 0 0 0 0 0 0 0 nan
nan -0 -0 -0 -0 0 0 -0 0 0 0 0 0 0 0 -0 -0 -0 -0 -0 -0 -0 0 0 0 0 0 0 0 1 0 0 0 1 1 0 1 1 0 0 1 0 0 0 0 0 0 1 nan
nan nan nan nan nan nan nan nan nan nan nan nan nan nan nan nan nan nan nan nan nan nan nan nan nan nan nan nan nan nan nan nan nan nan nan nan nan nan nan nan nan nan nan nan nan nan nan nan nan
Wind_Speed
11 11 10 8 4 0 3 6 2 5 2 4 4 2 7 8 1 3 16 28 26 30 28 25 22 19 18 17 15 17 20 18 14 13 14 16 18 19 18 16 14 12 13 17 19 19 19 18 18
11 12 10 4 4 4 5 4 0 8 14 7 8 11 5 3 3 14 25 19 27 30 28 25 22 20 18 16 17 20 20 17 14 15 17 18 18 19 18 15 12 16 18 19 20 19 19 18 17
13 15 5 4 4 8 5 6 9 14 16 21 1 7 2 4 11 18 12 27 30 31 28 25 23 20 18 17 18 21 20 17 16 17 18 19 20 20 20 19 21 20 20 19 19 19 18 16 15
11 15 6 3 11 7 8 4 6 15 17 27 4 4 8 3 6 14 21 27 32 30 28 25 23 20 19 19 20 22 21 18 18 19 19 20 20 21 21 21 21 20 20 19 18 17 16 15 13
20 7 5 4 9 4 4 3 15 12 20 23 18 2 1 10 11 19 18 28 29 29 27 24 22 20 19 19 20 22 22 20 18 18 19 20 20 20 20 20 20 19 18 17 16 14 13 12 10
13 9 7 7 11 5 5 7 5 8 24 32 29 15 4 8 21 23 18 21 26 28 26 24 21 19 19 18 19 22 23 21 17 17 17 18 18 19 19 19 18 17 15 14 13 12 11 10 8
11 4 9 12 4 4 7 19 5 3 11 3 24 18 18 12 17 18 19 16 23 25 26 23 21 19 17 18 19 21 22 21 18 16 14 15 15 15 15 14 14 13 12 10 9 8 7 7 6
15 1 6 7 5 6 10 24 9 3 6 11 14 8 13 20 5 10 21 21 20 20 22 21 20 19 18 16 17 20 20 21 19 15 16 15 13 13 12 12 11 11 9 8 7 6 5 4 4
18 6 9 8 8 5 13 6 3 4 5 8 12 20 29 29 29 16 20 22 22 19 17 19 20 19 18 16 15 20 20 21 18 16 14 13 12 11 10 10 9 8 7 6 5 4 3 2 1
12 9 8 5 6 5 9 6 13 6 5 5 16 26 35 41 42 35 21 21 21 20 16 20 20 20 19 16 15 17 19 19 18 16 12 11 10 10 9 8 8 7 6 5 5 4 3 2 0
11 9 4 5 2 5 9 7 5 19 1 7 19 34 37 33 32 31 30 17 19 16 15 19 19 19 18 17 15 15 16 17 17 14 12 10 10 9 9 8 8 8 7 6 5 4 3 2 1
7 11 15 3 4 4 7 13 6 5 7 11 20 31 37 33 31 31 33 28 17 20 16 19 18 15 15 15 13 12 12 15 15 14 15 13 10 9 8 8 7 7 7 6 6 4 3 1 1
5 12 14 12 4 8 5 5 9 16 16 16 12 18 34 34 36 33 31 33 28 21 22 20 18 19 17 14 12 10 11 13 14 12 12 11 10 8 7 8 8 7 7 6 5 4 3 2 3
4 12 16 12 5 5 4 4 7 14 16 17 11 10 22 29 30 32 36 32 29 26 25 21 19 21 20 20 14 11 11 12 14 12 11 9 10 9 10 11 9 8 7 6 4 4 4 5 6
8 7 7 11 5 4 7 4 5 16 16 17 12 9 14 24 29 30 29 28 27 29 27 24 22 22 21 22 15 13 13 14 14 12 11 10 10 12 11 12 10 7 6 5 6 7 7 8 9
5 4 5 3 6 5 5 5 3 12 15 14 12 10 9 10 24 24 28 30 29 27 29 26 28 29 27 22 18 15 18 17 15 14 13 13 12 13 12 12 11 8 7 7 7 8 9 10 10
4 5 8 1 6 1 4 4 5 11 9 8 9 10 11 10 11 13 22 26 27 26 26 30 32 31 29 25 24 22 22 20 20 18 19 16 13 12 14 13 11 10 9 8 8 9 9 10 12
9 5 4 6 7 4 7 9 5 7 13 13 13 12 11 14 12 9 10 17 25 27 24 25 27 27 24 24 25 24 25 23 24 22 21 18 14 12 14 14 13 11 10 11 12 13 14 16 16
10 9 8 10 10 5 7 8 7 8 6 13 19 23 21 16 13 14 11 10 19 23 27 26 31 31 29 27 30 31 30 28 24 24 21 19 17 15 12 14 12 11 13 14 15 17 18 17 17
9 12 6 7 12 5 6 11 10 6 6 10 21 21 24 28 20 17 19 17 16 19 22 24 26 27 28 29 32 30 28 27 28 24 23 21 20 19 17 16 16 16 16 16 16 18 19 21 19
9 12 9 8 6 2 7 5 14 7 10 18 17 21 19 23 26 32 30 25 21 20 20 22 25 26 28 28 28 27 25 23 26 27 24 22 21 21 19 18 18 19 20 21 21 21 23 24 25
5 4 5 16 10 4 3 2 7 13 12 6 21 21 17 18 19 26 27 31 28 24 22 22 24 26 29 29 30 29 26 24 24 25 25 24 23 22 23 23 22 22 21 23 23 24 25 25 25
3 7 5 12 7 2 3 1 5 2 7 14 16 26 25 23 19 23 19 31 33 29 25 26 23 25 26 28 30 28 26 25 22 22 25 28 26 25 21 22 21 20 21 22 22 23 24 24 24
6 9 11 5 3 2 6 4 5 2 6 5 13 22 25 24 22 20 16 18 34 31 28 28 25 25 25 27 28 27 28 28 27 26 27 24 18 22 24 24 22 19 19 21 23 24 23 23 23
2 7 3 2 0 2 3 4 7 5 3 4 7 5 5 16 24 20 15 13 26 28 26 28 26 25 26 30 30 29 30 26 26 25 28 24 21 27 27 21 19 18 21 22 22 23 23 24 24
8 4 4 4 5 4 3 5 4 3 10 15 13 10 10 9 6 3 11 14 13 18 23 23 22 24 26 28 29 31 29 29 27 27 26 25 24 23 20 18 18 19 22 23 24 24 25 24 24
3 3 3 6 4 4 3 2 2 6 6 13 14 16 13 9 7 5 3 7 14 16 19 20 19 20 21 22 24 24 25 28 29 27 22 18 18 18 15 17 18 20 22 26 26 26 25 25 24
5 4 2 3 3 3 2 1 3 4 4 4 7 11 12 13 15 14 8 4 8 14 15 17 18 18 19 19 19 19 18 18 17 15 13 16 19 18 19 18 19 22 23 24 25 26 25 24 23
5 3 5 4 2 3 2 4 3 7 7 7 6 7 10 13 15 16 15 14 10 8 15 17 18 19 19 21 21 19 19 19 18 19 23 23 21 21 20 23 23 25 24 25 25 25 25 23 21
1 1 3 4 1 2 3 4 3 4 4 10 9 12 6 9 10 11 12 13 13 14 14 15 18 20 21 22 22 22 21 21 22 21 21 21 20 24 21 24 23 23 23 24 23 22 22 22 20
Wind_Direction
247 237 214 190 145 127 219 240 265 209 94 0 86 7 96 68 75 207 146 157 159 159 158 156 153 151 148 142 137 134 131 136 125 118 120 128 140 143 141 127 128 125 109 111 111 109 109 106 100
241 218 206 227 152 152 239 251 59 196 248 279 346 132 39 74 89 138 149 162 168 159 158 157 155 152 150 148 142 141 138 139 125 118 117 121 130 143 143 139 132 123 116 115 115 110 109 107 100
236 213 193 188 188 191 188 189 228 170 222 241 292 71 76 79 93 147 177 164 168 161 159 158 156 155 152 150 145 146 145 138 128 119 114 116 119 122 125 125 120 120 119 116 114 112 109 107 102
219 221 246 159 222 215 172 142 233 126 166 241 174 66 71 127 147 178 160 165 165 160 159 157 155 156 153 149 147 149 147 139 130 121 117 116 118 120 122 121 121 120 118 116 115 113 111 110 105
212 208 223 213 235 213 242 295 126 170 175 191 252 126 118 58 144 146 155 165 164 158 155 157 159 158 154 149 149 153 151 142 137 127 123 122 122 123 124 123 122 121 120 117 116 115 111 106 101
205 209 196 214 219 181 170 216 321 159 192 186 191 163 92 134 152 154 153 163 168 159 158 159 161 162 156 155 154 158 156 147 147 138 130 128 128 128 130 130 130 128 127 124 121 117 112 108 100
218 191 200 217 199 142 172 204 143 237 122 67 180 167 153 204 116 161 163 155 172 165 160 165 168 165 161 160 157 160 160 154 152 149 137 133 133 133 133 132 131 131 130 128 125 121 116 113 108
218 152 213 188 176 191 199 188 126 88 104 142 147 169 167 167 211 151 169 165 168 169 171 172 172 169 167 162 160 162 164 162 160 156 144 140 138 140 141 141 142 143 142 140 136 130 125 117 111
209 200 217 186 163 188 213 140 121 119 139 129 159 159 180 164 183 155 172 171 171 173 183 188 177 174 171 167 163 166 167 170 168 159 155 153 151 151 154 156 154 151 150 148 148 148 145 142 126
220 187 218 227 166 197 197 174 135 118 125 95 139 150 162 175 171 161 168 180 182 179 184 192 187 180 178 173 167 171 171 175 174 174 172 170 159 165 170 175 176 176 173 170 169 168 174 171 194
210 178 180 244 60 205 182 144 120 132 255 198 175 163 171 177 188 195 182 196 194 199 183 194 192 190 188 185 178 173 180 179 181 187 196 193 185 177 176 187 196 195 194 194 198 202 202 190 222
167 164 209 311 10 103 168 144 93 134 144 164 175 168 174 178 176 178 188 192 210 198 202 184 188 197 199 197 196 194 189 188 192 199 208 205 204 202 205 205 198 201 203 206 211 221 214 216 316
220 159 178 260 2 38 168 92 134 129 132 143 149 176 181 186 181 188 188 181 193 239 237 197 191 204 211 205 204 210 208 210 200 196 208 216 220 230 222 212 208 202 210 211 210 220 237 264 295
166 132 179 230 278 349 56 78 111 158 139 145 139 161 184 189 187 188 186 192 200 195 203 211 222 214 217 220 219 218 221 217 208 205 215 235 238 240 239 224 217 211 208 219 236 255 271 282 291
192 121 66 200 212 318 360 28 134 153 141 137 126 123 176 186 194 190 191 189 195 203 198 194 232 217 221 209 210 214 230 225 214 218 225 251 251 235 230 226 225 221 229 241 256 261 262 269 279
97 93 138 343 210 15 52 187 226 157 151 144 145 146 141 170 200 193 201 201 200 201 206 205 208 218 218 214 222 221 226 219 223 230 234 246 256 240 231 223 222 220 225 232 241 252 265 270 273
79 122 172 31 343 238 90 229 222 182 164 179 184 185 195 180 174 191 216 207 212 210 208 212 212 221 217 225 226 226 225 219 226 231 229 243 252 247 235 229 225 229 237 252 266 269 271 278 280
155 133 110 120 187 62 155 258 303 202 203 211 224 221 212 208 207 193 180 207 208 213 212 211 208 216 226 222 223 227 231 228 222 228 225 234 242 241 239 231 226 227 236 246 254 260 268 277 280
136 149 131 154 153 114 247 272 246 277 202 223 226 232 235 224 218 223 217 200 203 215 216 213 220 218 227 226 228 225 227 228 220 221 223 231 235 235 236 230 231 228 240 253 253 262 270 275 278
106 126 102 97 145 183 183 261 273 278 266 251 237 231 234 235 228 220 231 225 205 207 214 218 224 222 221 226 227 228 228 228 224 221 227 231 225 225 229 231 233 236 241 249 258 263 268 271 272
141 161 168 153 164 131 140 245 264 270 251 252 250 238 238 237 234 236 240 236 224 212 211 220 224 224 225 230 232 227 228 229 224 225 215 222 224 231 228 233 239 246 252 254 257 264 267 273 275
126 192 154 153 154 173 149 289 231 228 241 223 241 246 247 251 243 238 236 230 231 228 225 223 224 226 225 228 233 234 231 227 225 220 218 223 229 235 241 247 249 248 255 262 268 270 273 273 278
144 131 117 123 81 95 146 11 265 82 245 250 246 244 248 249 253 242 252 234 229 232 232 226 232 234 233 231 235 233 233 231 236 241 231 226 234 246 250 259 259 260 263 266 270 272 275 277 278
99 81 40 50 59 95 206 137 303 222 214 241 243 250 251 247 259 246 247 241 224 225 226 232 227 234 240 240 240 236 236 232 232 229 234 231 238 252 258 259 259 259 265 270 277 280 280 279 279
103 105 88 95 66 170 145 126 245 274 287 213 140 134 224 255 256 257 242 229 224 230 231 232 234 233 237 243 242 242 241 234 235 231 243 241 238 243 247 251 255 269 283 283 286 284 285 283 280
164 118 142 137 170 146 126 215 256 34 76 93 97 97 98 100 88 87 231 229 229 236 231 233 240 244 243 243 242 240 237 234 232 234 232 237 240 240 242 250 265 277 281 283 286 284 284 283 281
171 87 172 103 352 74 210 211 38 38 57 90 91 84 76 63 53 43 37 228 222 222 227 233 239 243 246 249 248 244 243 237 238 238 240 241 242 251 263 276 280 287 290 285 281 281 279 279 279
113 158 99 17 111 154 280 265 187 137 128 90 76 83 81 75 65 52 31 352 245 243 250 253 253 254 257 253 244 235 229 228 228 233 236 258 260 260 256 267 276 278 278 279 282 283 281 280 275
8 21 55 105 96 141 108 276 229 177 179 142 88 59 63 58 44 35 25 21 8 298 267 260 258 256 256 253 248 237 230 217 216 233 241 230 234 245 256 273 272 276 280 282 281 280 277 277 272
254 92 101 107 252 52 129 292 8 153 76 71 56 61 65 21 9 22 13 0 352 342 322 299 276 265 261 257 246 242 237 230 238 228 225 231 241 251 270 279 280 279 285 288 283 282 276 276 266
Height
1520 1522 1523 1525 1532 1538 1533 1519 1507 1511 1513 1512 1511 1511 1514 1514 1516 1525 1515 1520 1525 1527 1532 1535 1538 1541 1542 1544 1545 1548 1549 1550 1550 1550 1551 1551 1553 1555 1556 1558 1558 1559 1560 1560 1562 1562 1563 1563 1563
1519 1521 1521 1520 1527 1538 1529 1512 1510 1510 1515 1513 1515 1514 1515 1521 1519 1516 1520 1523 1526 1528 1532 1536 1538 1540 1543 1545 1546 1548 1550 1551 1551 1552 1552 1552 1553 1555 1557 1558 1559 1560 1562 1563 1563 1564 1565 1565 1565
1517 1520 1519 1518 1522 1522 1522 1509 1506 1506 1511 1516 1517 1517 1517 1516 1519 1521 1521 1523 1527 1529 1532 1536 1538 1541 1544 1545 1547 1548 1550 1552 1552 1553 1553 1554 1555 1556 1558 1559 1561 1562 1563 1564 1565 1566 1567 1567 1567
1515 1519 1517 1517 1514 1504 1503 1501 1502 1511 1517 1518 1517 1515 1516 1522 1519 1519 1523 1525 1527 1530 1533 1536 1539 1542 1544 1546 1547 1549 1551 1552 1553 1554 1555 1556 1557 1559 1560 1561 1562 1564 1565 1566 1567 1568 1569 1569 1570
1512 1513 1514 1516 1509 1500 1497 1497 1502 1513 1514 1520 1518 1518 1519 1521 1518 1521 1523 1526 1529 1532 1534 1538 1540 1542 1544 1546 1548 1550 1552 1553 1554 1555 1557 1558 1559 1560 1562 1562 1563 1564 1566 1567 1568 1569 1570 1571 1571
1508 1509 1511 1513 1501 1497 1495 1498 1500 1498 1505 1511 1513 1517 1522 1523 1523 1523 1525 1527 1531 1533 1535 1539 1541 1543 1545 1547 1549 1551 1552 1554 1555 1557 1558 1559 1561 1562 1563 1564 1565 1566 1567 1568 1570 1571 1572 1572 1573
1498 1504 1502 1501 1501 1497 1493 1495 1499 1498 1498 1505 1506 1508 1520 1516 1523 1522 1526 1529 1533 1536 1536 1539 1541 1544 1545 1548 1549 1552 1553 1555 1557 1557 1559 1561 1562 1564 1565 1566 1567 1568 1569 1570 1571 1572 1573 1573 1573
1496 1502 1503 1499 1498 1497 1486 1491 1495 1497 1496 1502 1503 1507 1514 1519 1521 1527 1528 1531 1533 1537 1539 1540 1542 1544 1546 1549 1550 1552 1554 1556 1558 1559 1560 1561 1563 1565 1566 1567 1568 1569 1570 1571 1571 1572 1573 1573 1574
1496 1500 1497 1493 1494 1488 1487 1489 1493 1494 1496 1496 1500 1502 1502 1509 1526 1528 1529 1532 1535 1537 1539 1541 1543 1544 1547 1549 1552 1552 1554 1557 1558 1559 1560 1562 1563 1565 1567 1568 1569 1570 1570 1571 1572 1572 1573 1573 1573
1488 1490 1494 1486 1482 1484 1485 1486 1490 1494 1499 1497 1497 1504 1509 1515 1518 1520 1528 1534 1535 1536 1538 1541 1543 1544 1546 1549 1552 1554 1553 1556 1558 1560 1561 1562 1563 1565 1566 1568 1569 1570 1570 1571 1572 1572 1573 1573 1573
1479 1482 1485 1486 1484 1483 1484 1489 1489 1493 1501 1497 1495 1498 1505 1511 1514 1514 1515 1531 1535 1539 1538 1540 1542 1545 1547 1549 1552 1554 1555 1556 1558 1559 1561 1561 1563 1564 1565 1567 1568 1569 1569 1570 1571 1571 1572 1572 1572
1475 1479 1483 1484 1484 1484 1486 1487 1490 1492 1496 1496 1499 1500 1501 1508 1509 1512 1516 1524 1535 1537 1541 1540 1542 1545 1548 1549 1552 1554 1555 1557 1558 1559 1559 1561 1562 1564 1564 1565 1566 1567 1569 1569 1569 1570 1570 1571 1571
1475 1475 1481 1486 1488 1487 1488 1488 1488 1493 1496 1499 1499 1501 1502 1507 1508 1509 1515 1520 1526 1536 1540 1541 1541 1544 1547 1549 1551 1553 1554 1556 1558 1559 1560 1560 1561 1562 1563 1563 1565 1566 1567 1568 1569 1569 1569 1569 1569
1470 1474 1480 1485 1491 1490 1488 1489 1489 1496 1497 1497 1497 1499 1502 1508 1509 1513 1512 1519 1521 1524 1534 1538 1541 1543 1546 1548 1549 1551 1553 1554 1556 1557 1559 1560 1560 1560 1561 1563 1563 1564 1565 1566 1567 1568 1568 1568 1568
1476 1480 1483 1490 1494 1491 1490 1494 1495 1494 1497 1497 1498 1500 1500 1506 1510 1512 1513 1516 1521 1529 1528 1535 1541 1543 1544 1546 1547 1549 1551 1552 1553 1555 1556 1558 1559 1561 1560 1561 1563 1563 1564 1564 1566 1566 1567 1567 1566
1474 1481 1487 1492 1490 1488 1495 1499 1494 1495 1496 1498 1500 1501 1503 1505 1508 1512 1516 1517 1521 1525 1528 1533 1535 1539 1541 1541 1544 1547 1549 1551 1552 1554 1555 1557 1558 1559 1560 1560 1561 1563 1563 1564 1564 1565 1565 1565 1565
1480 1485 1488 1499 1495 1493 1497 1500 1495 1496 1497 1499 1500 1502 1504 1506 1507 1510 1513 1514 1517 1522 1525 1526 1529 1535 1537 1539 1541 1545 1547 1548 1550 1552 1553 1554 1556 1556 1557 1559 1560 1561 1562 1563 1563 1564 1564 1564 1563
1476 1488 1496 1502 1500 1497 1502 1497 1494 1496 1496 1498 1500 1502 1503 1505 1507 1509 1510 1511 1515 1519 1522 1525 1528 1532 1536 1538 1541 1543 1544 1545 1546 1548 1550 1552 1553 1554 1555 1556 1557 1559 1560 1561 1561 1561 1561 1560 1560
1473 1484 1489 1496 1495 1500 1504 1499 1498 1494 1495 1497 1499 1500 1503 1504 1505 1507 1509 1511 1513 1516 1520 1523 1527 1528 1533 1535 1537 1538 1539 1542 1542 1544 1546 1549 1551 1552 1553 1554 1555 1557 1557 1558 1558 1558 1558 1558 1557
1469 1477 1487 1491 1494 1501 1502 1497 1494 1493 1493 1494 1497 1498 1500 1502 1504 1505 1508 1510 1511 1513 1517 1521 1524 1526 1527 1528 1531 1533 1537 1539 1540 1542 1543 1545 1548 1549 1550 1551 1552 1553 1554 1554 1555 1554 1554 1553 1553
1477 1478 1483 1489 1492 1498 1503 1506 1498 1493 1491 1492 1493 1496 1497 1497 1499 1501 1503 1507 1509 1511 1512 1515 1517 1521 1522 1527 1530 1530 1534 1536 1537 1538 1540 1541 1544 1546 1547 1548 1549 1550 1550 1550 1550 1550 1549 1548 1548
1480 1476 1477 1481 1489 1497 1495 1504 1497 1488 1489 1490 1490 1491 1493 1495 1495 1497 1499 1503 1506 1508 1510 1512 1514 1516 1520 1523 1526 1526 1527 1530 1533 1535 1537 1538 1540 1543 1545 1546 1545 1545 1546 1546 1546 1545 1545 1543 1542
1474 1476 1480 1483 1493 1495 1498 1507 1495 1489 1490 1485 1483 1487 1490 1492 1492 1494 1496 1498 1501 1505 1507 1510 1514 1517 1518 1519 1521 1521 1523 1527 1531 1533 1531 1533 1535 1538 1542 1543 1541 1541 1542 1542 1542 1541 1540 1538 1537
1474 1483 1490 1495 1500 1503 1498 1507 1498 1492 1486 1483 1482 1483 1486 1488 1490 1492 1493 1493 1496 1500 1502 1506 1511 1513 1513 1514 1515 1516 1520 1522 1524 1526 1529 1529 1529 1535 1537 1538 1538 1538 1537 1538 1537 1536 1534 1532 1530
1480 1485 1504 1505 1506 1503 1499 1509 1499 1483 1481 1479 1480 1482 1483 1485 1487 1489 1491 1491 1494 1496 1498 1502 1505 1508 1509 1509 1511 1512 1516 1516 1518 1520 1526 1526 1525 1529 1531 1532 1533 1533 1532 1533 1531 1531 1528 1527 1525
1482 1484 1501 1500 1508 1503 1500 1507 1494 1487 1484 1482 1481 1483 1484 1486 1486 1486 1488 1490 1491 1493 1496 1499 1501 1502 1504 1506 1507 1508 1510 1512 1514 1517 1519 1520 1522 1524 1527 1527 1527 1526 1524 1528 1525 1525 1523 1521 1519
1481 1490 1483 1501 1505 1509 1505 1494 1490 1488 1486 1485 1486 1486 1487 1487 1488 1488 1488 1488 1490 1492 1495 1497 1499 1500 1501 1502 1503 1503 1505 1508 1511 1513 1515 1518 1521 1523 1524 1524 1524 1523 1521 1522 1520 1519 1518 1515 1513
1477 1480 1492 1498 1509 1500 1503 1495 1496 1490 1489 1488 1489 1489 1491 1491 1490 1489 1488 1489 1489 1492 1495 1496 1497 1498 1498 1499 1500 1501 1503 1505 1508 1509 1511 1515 1517 1518 1519 1519 1518 1516 1515 1515 1513 1512 1510 1507 1509
1484 1485 1487 1493 1501 1506 1505 1499 1487 1489 1490 1490 1490 1491 1492 1492 1492 1491 1491 1491 1493 1493 1494 1494 1493 1494 1496 1496 1498 1499 1501 1501 1503 1505 1506 1508 1511 1512 1513 1511 1511 1510 1509 1508 1506 1505 1503 1500 1502
1484 1484 1488 1509 1504 1513 1518 1504 1486 1488 1492 1494 1495 1494 1495 1494 1493 1491 1491 1493 1493 1492 1492 1490 1490 1490 1491 1492 1493 1496 1498 1499 1501 1501 1503 1505 1506 1507 1505 1504 1506 1505 1503 1500 1500 1498 1497 1495 1497